GW2840 Weather Reports


time (UTC)temp
C
wind
direction
speed
KPH
gust
KPH
rain 1hr
cm
rain 24hr
cm
rain mn
cm
humidity
%
barometer
mb
20260507051138 10 126 0.0 0.0 0.00 0.00 0.00 87 1005.0
20260507050636 11 151 0.0 1.6 0.00 0.00 0.00 87 1005.2
20260507050132 11 69 0.0 1.6 0.00 0.00 0.00 85 1005.2
20260507045629 11 100 0.0 0.0 0.00 0.00 0.00 87 1005.1
20260507045126 11 123 0.0 0.0 0.00 0.00 0.00 88 1004.8
20260507044623 11 56 1.6 3.2 0.00 0.00 0.00 86 1004.7
20260507044120 11 63 0.0 4.8 0.00 0.00 0.00 89 1004.7
20260507043616 11 129 0.0 8.0 0.00 0.00 0.00 90 1004.8
20260507043113 12 109 0.0 0.0 0.00 0.00 0.00 92 1004.7
20260507042609 12 5 1.6 4.8 0.00 0.00 0.00 92 1004.8
20260507042104 12 116 0.0 0.0 0.00 0.00 0.00 93 1004.9
20260507041601 12 96 0.0 0.0 0.00 0.00 0.00 93 1004.9
20260507041058 12 115 0.0 0.0 0.00 0.00 0.00 93 1004.9
20260507040555 12 126 0.0 0.0 0.00 0.00 0.00 92 1004.8
20260507040051 12 122 0.0 0.0 0.00 0.00 0.00 92 1004.9
20260507035547 12 111 0.0 0.0 0.00 0.00 0.00 91 1004.9
20260507035043 12 153 0.0 1.6 0.00 0.00 0.00 91 1005.0
20260507034540 13 123 0.0 0.0 0.00 0.00 0.00 90 1004.6
20260507034038 13 99 0.0 0.0 0.00 0.00 0.00 89 1004.6
20260507033536 13 112 0.0 4.8 0.00 0.00 0.00 88 1004.5
20260507033033 13 123 1.6 1.6 0.00 0.00 0.00 88 1004.2
20260507032530 13 88 0.0 8.0 0.00 0.00 0.00 87 1004.3
20260507032026 13 156 3.2 4.8 0.00 0.00 0.00 88 1004.2
20260507031522 13 124 0.0 1.6 0.00 0.00 0.00 90 1004.0
20260507031020 14 146 0.0 1.6 0.00 0.00 0.00 93 1004.0
20260507030516 14 35 0.0 0.0 0.00 0.00 0.00 95 1003.7
20260507030015 15 22 1.6 1.6 0.00 0.00 0.00 95 1003.9
20260507025511 15 76 0.0 1.6 0.00 0.00 0.00 96 1003.8
20260507025009 15 119 0.0 0.0 0.00 0.00 0.00 95 1003.7
20260507024506 15 133 1.6 1.6 0.00 0.00 0.00 95 1004.0
20260507024003 15 132 1.6 1.6 0.00 0.00 0.00 95 1003.8
20260507023458 15 119 0.0 0.0 0.00 0.00 0.00 95 1003.7
20260507022956 15 124 0.0 1.6 0.00 0.00 0.00 95 1003.5
20260507022453 15 126 0.0 0.0 0.00 0.00 0.00 95 1003.6
20260507021948 15 134 1.6 1.6 0.00 0.00 0.00 95 1003.7
20260507021444 15 123 0.0 0.0 0.00 0.00 0.00 95 1003.6
20260507020941 15 133 0.0 1.6 0.00 0.00 0.00 95 1003.4
20260507020438 15 125 0.0 1.6 0.00 0.00 0.00 95 1003.4
20260507015935 15 132 0.0 0.0 0.00 0.00 0.00 95 1003.3
20260507015434 15 120 0.0 0.0 0.00 0.00 0.00 95 1003.4
20260507014930 15 118 0.0 1.6 0.00 0.00 0.00 95 1003.4
20260507014427 15 147 0.0 1.6 0.00 0.00 0.00 95 1003.3
20260507013923 15 120 0.0 0.0 0.00 0.00 0.00 95 1003.3
20260507013420 15 124 0.0 0.0 0.00 0.00 0.00 95 1003.5
20260507012918 15 114 0.0 0.0 0.00 0.00 0.00 95 1003.3
20260507012414 15 126 0.0 1.6 0.00 0.00 0.00 95 1003.4
20260507011910 15 120 0.0 1.6 0.00 0.00 0.00 95 1003.3
20260507011407 15 134 1.6 1.6 0.00 0.00 0.00 95 1003.4
20260507010902 15 151 0.0 1.6 0.00 0.00 0.00 95 1003.3
20260507010357 15 147 0.0 1.6 0.00 0.00 0.00 95 1003.4
20260507005855 15 117 1.6 1.6 0.00 0.00 0.00 95 1003.4
20260507005351 15 173 1.6 1.6 0.00 0.00 0.00 95 1003.5
20260507004848 15 128 0.0 1.6 0.00 0.00 0.00 95 1003.3
20260507004345 15 157 0.0 1.6 0.00 0.00 0.00 95 1003.4
20260507003842 15 161 0.0 1.6 0.00 0.00 0.00 95 1003.3
20260507003338 15 167 0.0 1.6 0.00 0.00 0.00 95 1003.3
20260507002833 15 130 0.0 1.6 0.00 0.00 0.00 95 1003.2
20260507002329 15 143 1.6 3.2 0.00 0.00 0.00 95 1003.3
20260507001827 15 95 0.0 1.6 0.00 0.00 0.00 95 1003.0
20260507001323 15 179 1.6 3.2 0.00 0.00 0.00 95 1003.1
20260507000820 15 116 0.0 0.0 0.00 0.00 0.00 95 1003.1
20260507000315 15 107 0.0 0.0 0.00 0.00 0.00 95 1003.4
20260506235812 15 152 1.6 1.6 0.00 0.00 0.00 95 1003.2
20260506235309 15 141 0.0 1.6 0.00 0.00 0.00 95 1002.8
20260506234805 15 131 0.0 3.2 0.00 0.00 0.00 95 1003.3
20260506234302 15 121 0.0 1.6 0.00 0.00 0.00 95 1002.9
20260506233800 15 127 0.0 0.0 0.00 0.00 0.00 95 1003.0
20260506233250 15 120 0.0 0.0 0.00 0.00 0.00 95 1003.0
20260506232747 15 129 0.0 0.0 0.00 0.00 0.00 95 1002.9
20260506232242 15 136 0.0 0.0 0.00 0.00 0.00 95 1003.0
20260506231740 15 144 0.0 1.6 0.00 0.00 0.00 95 1002.9
20260506231238 15 102 3.2 3.2 0.00 0.00 0.00 95 1003.1
20260506230734 15 115 0.0 1.6 0.00 0.00 0.00 94 1003.1
20260506230231 15 222 0.0 1.6 0.00 0.00 0.00 94 1003.1
20260506225728 15 126 0.0 1.6 0.00 0.00 0.00 94 1003.2
20260506225225 15 123 0.0 0.0 0.00 0.00 0.00 94 1003.1
20260506224721 15 153 0.0 1.6 0.00 0.00 0.00 94 1003.3
20260506224218 15 125 0.0 1.6 0.00 0.00 0.00 94 1003.4
20260506223715 15 126 0.0 1.6 0.00 0.00 0.00 94 1003.4
20260506223210 15 213 0.0 1.6 0.00 0.00 0.00 93 1003.3
20260506222708 15 151 0.0 8.0 0.00 0.00 0.00 93 1003.1
20260506222203 15 187 1.6 4.8 0.00 0.00 0.00 93 1003.1
20260506221701 15 193 3.2 3.2 0.00 0.00 0.00 93 1003.2
20260506221159 15 134 0.0 3.2 0.00 0.00 0.00 93 1003.5
20260506220656 15 144 1.6 1.6 0.00 0.00 0.00 93 1003.4
20260506220150 15 133 0.0 1.6 0.00 0.00 0.00 93 1003.5
20260506215648 15 128 1.6 4.8 0.00 0.00 0.00 92 1003.2
20260506215143 15 132 0.0 3.2 0.00 0.00 0.00 92 1003.5
20260506214640 15 148 0.0 1.6 0.00 0.00 0.00 92 1003.4
20260506214137 15 153 0.0 1.6 0.00 0.00 0.00 92 1003.4
20260506213636 15 357 1.6 3.2 0.00 0.00 0.00 92 1003.3
20260506213132 15 162 1.6 4.8 0.00 0.00 0.00 92 1003.6
20260506212630 15 104 0.0 4.8 0.00 0.00 0.00 92 1003.5
20260506212124 15 103 0.0 3.2 0.00 0.00 0.00 92 1003.5
20260506211620 15 129 0.0 1.6 0.00 0.00 0.00 92 1003.6
20260506211117 15 133 0.0 4.8 0.00 0.00 0.00 91 1003.7
20260506210614 15 124 0.0 1.6 0.00 0.00 0.00 91 1003.7
20260506210110 15 138 0.0 1.6 0.00 0.00 0.00 91 1004.1
20260506205608 15 118 1.6 4.8 0.00 0.00 0.00 92 1003.9
20260506205103 15 220 3.2 4.8 0.00 0.00 0.00 91 1004.0
20260506204601 15 196 3.2 8.0 0.00 0.00 0.00 91 1004.1
20260506204057 15 147 0.0 3.2 0.00 0.00 0.00 91 1004.0
20260506203556 15 241 3.2 4.8 0.00 0.00 0.00 91 1004.2
20260506203052 15 153 3.2 4.8 0.00 0.00 0.00 90 1004.0
20260506202550 16 189 0.0 3.2 0.00 0.00 0.00 90 1003.9
20260506202046 16 149 1.6 3.2 0.00 0.00 0.00 90 1004.1
20260506201544 16 168 1.6 1.6 0.00 0.00 0.00 89 1004.0
20260506201040 16 122 0.0 3.2 0.00 0.00 0.00 89 1004.0
20260506200536 16 103 1.6 1.6 0.00 0.00 0.00 88 1004.2
20260506200033 16 109 1.6 4.8 0.00 0.00 0.00 86 1004.0
20260506195530 16 146 0.0 1.6 0.00 0.00 0.00 86 1004.3
20260506195026 16 268 1.6 3.2 0.00 0.00 0.00 85 1004.4
20260506194524 16 125 1.6 3.2 0.00 0.00 0.00 86 1004.0
20260506194020 16 240 1.6 4.8 0.00 0.00 0.00 86 1004.3
20260506193518 16 230 1.6 4.8 0.00 0.00 0.00 86 1004.2
20260506193015 16 138 0.0 1.6 0.00 0.00 0.00 86 1004.2
20260506192511 16 184 0.0 1.6 0.00 0.00 0.00 87 1004.1
20260506192007 16 141 1.6 1.6 0.00 0.00 0.00 88 1004.2
20260506191504 16 130 0.0 1.6 0.00 0.00 0.00 88 1004.2
20260506191001 16 173 0.0 1.6 0.00 0.00 0.00 88 1004.2
20260506190458 17 118 0.0 0.0 0.00 0.00 0.00 89 1003.9
20260506185954 17 125 0.0 0.0 0.00 0.00 0.00 88 1004.1
20260506185452 17 102 0.0 0.0 0.00 0.00 0.00 87 1004.3
20260506184948 17 124 0.0 1.6 0.00 0.00 0.00 87 1004.4
20260506184446 17 113 0.0 0.0 0.00 0.00 0.00 85 1004.3
20260506183943 17 149 1.6 1.6 0.00 0.00 0.00 83 1004.5
20260506183438 17 125 0.0 1.6 0.00 0.00 0.00 82 1004.6
20260506182935 18 126 0.0 1.6 0.00 0.00 0.00 79 1004.5
20260506182432 18 99 1.6 1.6 0.00 0.00 0.00 77 1004.7
20260506181930 19 103 1.6 1.6 0.00 0.00 0.00 73 1004.8
20260506181428 20 142 1.6 3.2 0.00 0.00 0.00 68 1004.7
20260506180924 20 155 1.6 3.2 0.00 0.00 0.00 63 1004.6
20260506180420 20 115 0.0 4.8 0.00 0.00 0.00 64 1004.5
20260506175917 20 174 3.2 3.2 0.00 0.00 0.00 61 1004.8
20260506175414 21 171 3.2 4.8 0.00 0.00 0.00 59 1004.6
20260506174911 21 215 0.0 4.8 0.00 0.00 0.00 58 1004.6
20260506174408 21 207 3.2 4.8 0.00 0.00 0.00 56 1004.7
20260506173900 21 144 1.6 3.2 0.00 0.00 0.00 56 1004.5
20260506173356 21 138 0.0 3.2 0.00 0.00 0.00 57 1004.5
20260506172853 22 241 3.2 4.8 0.00 0.00 0.00 54 1004.7
20260506172349 22 150 4.8 9.7 0.00 0.00 0.00 52 1004.6
20260506171842 22 210 3.2 4.8 0.00 0.00 0.00 52 1004.4
20260506171339 22 200 6.4 11.3 0.00 0.00 0.00 52 1004.6
20260506170836 22 171 4.8 8.0 0.00 0.00 0.00 52 1004.4
20260506170331 22 263 4.8 8.0 0.00 0.00 0.00 52 1004.5
20260506165826 22 185 1.6 3.2 0.00 0.00 0.00 54 1004.6
20260506165323 22 112 1.6 8.0 0.00 0.00 0.00 53 1004.5
20260506164819 22 186 3.2 3.2 0.00 0.00 0.00 54 1004.7
20260506164316 21 142 4.8 4.8 0.00 0.00 0.00 54 1005.0
20260506163813 21 211 3.2 8.0 0.00 0.00 0.00 55 1005.0
20260506163308 21 159 4.8 4.8 0.00 0.00 0.00 55 1004.9
20260506162803 21 173 1.6 8.0 0.00 0.00 0.00 56 1005.2
20260506162301 21 105 3.2 3.2 0.00 0.00 0.00 57 1005.2
20260506161753 21 132 4.8 11.3 0.00 0.00 0.00 56 1005.2
20260506161250 21 138 3.2 8.0 0.00 0.00 0.00 57 1005.2
20260506160748 21 142 1.6 3.2 0.00 0.00 0.00 58 1005.4
20260506160244 21 115 0.0 3.2 0.00 0.00 0.00 58 1005.6
20260506155743 21 193 4.8 8.0 0.00 0.00 0.00 58 1005.6
20260506155239 21 295 3.2 3.2 0.00 0.00 0.00 58 1005.9
20260506153352 20 123 1.6 3.2 0.00 0.00 0.00 62 1005.9
20260506152849 20 201 1.6 3.2 0.00 0.00 0.00 63 1006.0
20260506152346 20 118 0.0 3.2 0.00 0.00 0.00 62 1006.3
20260506151845 20 192 1.6 3.2 0.00 0.00 0.00 62 1006.3
20260506151341 20 183 1.6 4.8 0.00 0.00 0.00 61 1006.4
20260506150839 20 160 0.0 4.8 0.00 0.00 0.00 61 1006.4
20260506150335 20 292 3.2 4.8 0.00 0.00 0.00 61 1006.5
20260506145832 20 181 3.2 3.2 0.00 0.00 0.00 62 1006.3
20260506145328 20 175 4.8 8.0 0.00 0.00 0.00 60 1006.3
20260506144826 20 54 3.2 4.8 0.00 0.00 0.00 62 1006.3
20260506144322 20 177 1.6 9.7 0.00 0.00 0.00 63 1006.6
20260506143821 20 129 1.6 4.8 0.00 0.00 0.00 63 1006.4
20260506143317 20 222 1.6 4.8 0.00 0.00 0.00 62 1006.6
20260506142816 20 209 4.8 12.9 0.00 0.00 0.00 62 1006.5
20260506142313 20 144 3.2 9.7 0.00 0.00 0.00 63 1006.4
20260506141812 20 141 0.0 3.2 0.00 0.00 0.00 64 1006.4
20260506141309 20 129 1.6 8.0 0.00 0.00 0.00 63 1006.2
20260506140807 20 209 1.6 1.6 0.00 0.00 0.00 64 1006.1
20260506140303 20 195 1.6 4.8 0.00 0.00 0.00 64 1006.1
20260506135801 19 255 1.6 4.8 0.00 0.00 0.00 65 1006.1
20260506135257 19 18 3.2 4.8 0.00 0.00 0.00 66 1006.3
20260506134754 19 146 3.2 8.0 0.00 0.00 0.00 66 1006.3
20260506134250 19 216 4.8 8.0 0.00 0.00 0.00 65 1006.2
20260506133747 19 98 0.0 3.2 0.00 0.00 0.00 67 1006.4
20260506133244 18 83 1.6 3.2 0.00 0.00 0.00 67 1006.5
20260506132741 18 175 3.2 3.2 0.00 0.00 0.00 68 1006.6
20260506132238 18 212 1.6 3.2 0.00 0.00 0.00 69 1006.7
20260506131736 18 243 3.2 8.0 0.00 0.00 0.00 68 1006.7
20260506131232 18 146 1.6 3.2 0.00 0.00 0.00 69 1006.9
20260506130729 18 156 3.2 3.2 0.00 0.00 0.00 70 1007.0
20260506130225 18 100 3.2 11.3 0.00 0.00 0.00 70 1006.7
20260506125724 17 105 0.0 8.0 0.00 0.00 0.00 71 1007.0
20260506125221 17 184 3.2 8.0 0.00 0.00 0.00 70 1006.9
20260506124719 17 117 1.6 8.0 0.00 0.00 0.00 71 1007.0
20260506124217 17 216 3.2 4.8 0.00 0.00 0.00 70 1006.9
20260506123714 17 177 0.0 9.7 0.00 0.00 0.00 70 1007.0
20260506123213 17 173 4.8 8.0 0.00 0.00 0.00 70 1006.7
20260506122709 17 204 3.2 9.7 0.00 0.00 0.00 70 1006.7
20260506122207 17 156 1.6 3.2 0.00 0.00 0.00 71 1006.9
20260506121704 17 89 0.0 3.2 0.00 0.00 0.00 72 1006.9
20260506121200 17 106 0.0 0.0 0.00 0.00 0.00 72 1007.1
20260506120658 17 153 1.6 3.2 0.00 0.00 0.00 72 1007.1
20260506120156 17 155 0.0 1.6 0.00 0.00 0.00 71 1007.1
20260506115654 17 98 3.2 4.8 0.00 0.00 0.00 71 1007.0
20260506115152 16 120 1.6 3.2 0.00 0.00 0.00 74 1007.1
20260506114649 16 231 3.2 3.2 0.00 0.00 0.00 74 1007.2
20260506114146 16 152 1.6 1.6 0.00 0.00 0.00 74 1007.6
20260506113645 16 128 0.0 1.6 0.00 0.00 0.00 75 1007.3
20260506113142 16 259 1.6 3.2 0.00 0.00 0.00 74 1007.4
20260506112638 16 156 1.6 3.2 0.00 0.00 0.00 74 1007.2
20260506112136 16 103 0.0 4.8 0.00 0.00 0.00 74 1007.4
20260506111633 16 131 1.6 4.8 0.00 0.00 0.00 75 1007.5
20260506111131 16 130 0.0 3.2 0.00 0.00 0.00 75 1007.6
20260506110628 16 118 0.0 1.6 0.00 0.00 0.00 75 1007.5
20260506110125 16 217 0.0 1.6 0.00 0.00 0.00 75 1007.3
20260506105622 16 148 1.6 3.2 0.00 0.00 0.00 75 1007.3
20260506105119 15 150 1.6 1.6 0.00 0.00 0.00 76 1007.2
20260506104617 15 131 0.0 1.6 0.00 0.00 0.00 76 1007.5
20260506104114 15 138 0.0 1.6 0.00 0.00 0.00 77 1007.5
20260506103611 15 134 0.0 3.2 0.00 0.00 0.00 77 1007.5
20260506103108 15 136 0.0 1.6 0.00 0.00 0.00 77 1007.4
20260506102606 15 127 0.0 0.0 0.00 0.00 0.00 77 1007.3
20260506102104 15 147 0.0 1.6 0.00 0.00 0.00 76 1007.5
20260506101600 15 139 0.0 1.6 0.00 0.00 0.00 76 1007.3
20260506101057 15 159 1.6 3.2 0.00 0.00 0.00 75 1007.4
20260506100555 15 129 0.0 1.6 0.00 0.00 0.00 75 1007.4
20260506100053 15 176 1.6 3.2 0.00 0.00 0.00 75 1007.1
20260506095551 15 198 1.6 3.2 0.00 0.00 0.00 75 1007.4
20260506095048 15 112 0.0 8.0 0.00 0.00 0.00 75 1007.2
20260506094545 15 147 0.0 3.2 0.00 0.00 0.00 74 1007.2
20260506094043 15 138 1.6 1.6 0.00 0.00 0.00 75 1007.2
20260506093541 15 165 0.0 3.2 0.00 0.00 0.00 74 1007.1
20260506093038 15 182 1.6 3.2 0.00 0.00 0.00 74 1007.1
20260506092536 15 137 0.0 4.8 0.00 0.00 0.00 74 1006.9
20260506092033 15 177 0.0 8.0 0.00 0.00 0.00 74 1007.4
20260506091531 15 116 0.0 0.0 0.00 0.00 0.00 74 1007.2
20260506091028 15 68 4.8 4.8 0.00 0.00 0.00 74 1007.1
20260506090526 15 117 0.0 3.2 0.00 0.00 0.00 74 1007.2
20260506090022 15 307 1.6 1.6 0.00 0.00 0.00 73 1007.2
20260506085519 15 247 1.6 3.2 0.00 0.00 0.00 73 1007.3
20260506085015 15 142 0.0 1.6 0.00 0.00 0.00 73 1007.1
20260506084512 15 117 0.0 0.0 0.00 0.00 0.00 73 1007.3
20260506084008 15 183 1.6 3.2 0.00 0.00 0.00 73 1007.3
20260506083506 16 130 0.0 1.6 0.00 0.00 0.00 73 1007.3
20260506083003 16 172 1.6 1.6 0.00 0.00 0.00 73 1007.2
20260506082500 16 126 0.0 0.0 0.00 0.00 0.00 72 1007.1
20260506081955 16 215 1.6 3.2 0.00 0.00 0.00 72 1007.2
20260506081454 16 92 0.0 3.2 0.00 0.00 0.00 71 1007.3
20260506080951 16 136 1.6 3.2 0.00 0.00 0.00 71 1007.1
20260506080448 16 164 0.0 1.6 0.00 0.00 0.00 70 1007.1
20260506073431 16 155 1.6 3.2 0.00 0.00 0.00 68 1007.3
20260506072929 16 322 1.6 3.2 0.00 0.00 0.00 68 1007.1
20260506072426 16 83 0.0 1.6 0.00 0.00 0.00 68 1007.1
20260506071924 16 149 1.6 1.6 0.00 0.00 0.00 68 1007.0
20260506071422 16 139 1.6 1.6 0.00 0.00 0.00 67 1006.9
20260506070918 16 135 0.0 4.8 0.00 0.00 0.00 67 1006.9
20260506070415 17 216 1.6 4.8 0.00 0.00 0.00 66 1006.7
20260506062352 17 122 1.6 3.2 0.00 0.00 0.00 63 1006.9
20260506061848 17 164 1.6 3.2 0.00 0.00 0.00 63 1006.7
20260506061345 17 143 1.6 1.6 0.00 0.00 0.00 63 1006.7
20260506060843 17 150 0.0 1.6 0.00 0.00 0.00 62 1006.7
20260506060341 17 189 1.6 3.2 0.00 0.00 0.00 62 1006.6
20260506051313 17 214 1.6 3.2 0.00 0.00 0.00 61 1006.9